Regional Weather Roundup
Issued by NWS Northern Indiana

Home | Current Version | Previous Version | Graphics & Text | Print | Product List | Glossary On
Versions: 1 2 3 4 5 6 7 8 9 10 11 12 13 14 15 16 17 18 19 20 21 22 23 24 25 26 27 28 29 30 31 32 33 34 35 36 37 38 39 40 41 42 43 44 45 46 47 48 49 50
000
ASUS43 KIWX 230800
RWRIWX

KIWX WEATHER ROUNDUP
NATIONAL WEATHER SERVICE NORTHERN INDIANA
400 AM EDT THU MAR 23 2017

NOTE: "FAIR" INDICATES FEW OR NO CLOUDS BELOW 12,000 FEET WITH NO
SIGNIFICANT WEATHER AND/OR OBSTRUCTIONS TO VISIBILITY.

* THESE STATIONS ARE NOT UNDER NWS QUALITY CONTROL. THEY ALSO MAY NOT
  REPORT WEATHER SUCH AS PRECIPITATION OR FOG.

INZ001>027-230900-
NORTHERN INDIANA

CITY           SKY/WX    TMP DP  RH WIND       PRES   REMARKS
KNOX*          CLOUDY    27   3  36 E6        30.47S WCI  20
SOUTH BEND     CLEAR     26  17  68 SE8       30.47F WCI  18
GOSHEN         CLEAR     25  14  63 SE8       30.49S WCI  16
MONTICELLO*    CLOUDY    29  21  71 E7        30.45S WCI  22
ANGOLA*        CLEAR     23  16  74 SE6       30.49S WCI  16
FORT WAYNE     PTCLDY    23  17  78 E7        30.50S WCI  15
PERU/GRISSOM   CLEAR     27  21  76 E8        30.44F WCI  19

$$
INZ028>050-230900-
CENTRAL INDIANA

CITY           SKY/WX    TMP DP  RH WIND       PRES   REMARKS
LAFAYETTE      CLOUDY    27  21  78 E8        30.44S WCI  19
KOKOMO*        CLEAR     27  21  78 E9        30.46F WCI  18
MUNCIE*        CLEAR     27  20  75 E8        30.46F WCI  19
INDIANAPOLIS   PTCLDY    30  20  66 E10       30.42F WCI  21

$$
MIZ043>046-050>051-056>058-064>065-071>073-077>080-230900-
SOUTHWEST LOWER MICHIGAN

CITY           SKY/WX    TMP DP  RH WIND       PRES   REMARKS
BATTLE CREEK   CLEAR     25  16  68 S8        30.49F WCI  16
BENTON HARBOR  CLEAR     20  16  84 E6        30.47F WCI  12
COLDWATER*     CLEAR     24  15  70 SE5       30.50S WCI  18
HILLSDALE*     CLEAR     21  16  79 SE5       30.48S WCI  15
HOLLAND        CLEAR     23  14  68 SE7       30.48F WCI  15
GRAND RAPIDS   CLOUDY    26  12  55 SE8       30.48F WCI  18
KALAMAZOO      CLEAR     27  14  58 SE7       30.49F WCI  19
STURGIS*       CLEAR     24  16  73 SE5       30.48F WCI  18
THREE RIVERS*  FAIR      26  16  66 SE7       30.49F WCI  18

$$
OHZ001>008-015>018-024>025-230900-
NORTHWEST OHIO

CITY           SKY/WX    TMP DP  RH WIND       PRES   REMARKS
DEFIANCE       CLEAR     21  15  78 E3        30.53S
FINDLAY        CLOUDY    23  14  68 E6        30.51S WCI  16
TOLEDO EXPRESS CLEAR     20  15  81 CALM      30.53F
TOLEDO METCALF CLEAR     22  16  78 CALM      30.55F
LIMA           CLOUDY    22  17  81 E7        30.49F WCI  13

$$
AND FOR LAKE MICHIGAN COASTAL AND OPEN LAKE BUOY OBSERVATIONS

STATION/POSITION TEMP    WIND        PRES    VSBY  WAVE
                 AIR SEA DIR/SP/G                  HT/PER
                 (F)     (DEG/KT/KT) (MB)    (MI)  (FT/S)
CALUMET HARBOR    33     130/  6/  9 1030.7F
MICHIGAN CITY     28      90/  4/  5   N/A
BURNS HARBOR      32     140/  8/ 11 1031.8S
SAINT JOSEPH      25      CALM  /  1 1032.8

$$
&&




USA.gov is the U.S. government's official web portal to all federal, state and local government web resources and services.